User: anonymous   Login
Location: Petrozavodsk
(61.7857°N, 34.3593°E)
Time: 18:46:16
(UTC+03:00)
Language:

Terra - Orbit

View from above orbital plane
View from above orbital plane
View from above satellite
View from above satellite

Ground track
Ground track

The orbit data is extracted from the following two-line orbital elements,

1 25994U 99068A   21134.10874113  .00000074  00000-0  26410-4 0  9995
2 25994  98.1766 209.1588 0001460  98.1428  13.0106 14.57130357138463
Epoch (UTC): 14 May 2021 02:36:35
Eccentricity: 0.0001460
inclination: 98.1766°
perigee height: 701 km
apogee height: 703 km
right ascension of ascending node: 209.1588°
argument of perigee: 98.1428°
revolutions per day: 14.57130357
mean anomaly at epoch: 13.0106°
orbit number at epoch: 13846

The dashed part of the orbit path shows where the satellite is in the earth's shadow,  

DLR